Flag for Poland Weather past 2 weeks in Lódz, Poland

Now
44 °F

Fog.


Feels Like: 42 °F
Forecast: 35 / 53 °F
Wind: 3 mph from North

Location: Lodz

Current Time: Mar 28, 2015 at 1:19:31 PM

Latest Report: Mar 28, 2015 at 12:00 PM


Visibility: 5 mi

Pressure: 30.06 "Hg

Humidity: 82%

Dew point: 39 °F

Location of LódzLocation

Historic Weather in Lódz — Graph

°F

Lódz temperature yesterday

Maximum temperature yesterday: 48 °F (at 7:00 AM)
Minimum temperature yesterday: 41 °F (at 11:00 PM)
Average temperature yesterday: 45 °F

Past Weeks' High & Low Weather Summary

 TemperatureHumidityPressure
High63 °F (Mar 25, 4:00 PM)96% (Mar 27, 3:00 AM)30.67 "Hg (Mar 27, 3:00 AM)
Low21 °F (Mar 23, 6:00 AM)27% (Mar 18, 3:00 PM)29.74 "Hg (Mar 26, 3:00 PM)
Average42 °F67%30.21 "Hg
* Reported Mar 13 12:00 Noon — Mar 28 12:00 Noon, Lódz, Weather by CustomWeather, © 2015

Note: Actual official high and low records may vary slightly from our data, if they occured in-between our weather recording intervals... More about our weather records

Advertising

Lódz weather history for previous 24 hours

 ConditionsComfort  
Time TempWeatherWind HumidityBarometerVisibility
12:00 PM
Sat, Mar 28
44 °FFog.3 mph82%30.06 "Hg5 mi
11:00 AM43 °FFog.5 mph84%30.06 "Hg5 mi
10:00 AM43 °FFog.5 mph87%30.07 "Hg6 mi
9:00 AM42 °FFog.3 mph90%30.07 "Hg4 mi
8:00 AM40 °FFog.5 mph93%30.06 "Hg3 mi
7:00 AM39 °FFog.3 mph95%30.06 "Hg2 mi
6:00 AM37 °FFog.2 mph94%30.06 "Hg2 mi
5:00 AM38 °FFog.3 mph94%30.04 "Hg2 mi
4:00 AM39 °FFog.3 mph96%30.04 "Hg2 mi
3:00 AM37 °FFog.2 mph96%30.03 "Hg1 mi
2:00 AM36 °FFog.1 mph95%30.03 "Hg1 mi
1:00 AM38 °FFog.No wind95%30.03 "Hg2 mi
12:00 AM39 °FFog.2 mph94%30.02 "Hg2 mi
11:00 PM
Fri, Mar 27
41 °FFog.2 mph93%30.01 "Hg2 mi
9:00 PM42 °FFog.2 mph96%30.00 "Hg1 mi
8:00 PM43 °FFog.1 mph95%29.98 "Hg2 mi
7:00 PM43 °FLow clouds.2 mph95%29.97 "Hg2 mi
6:00 PM43 °FSprinkles. Low clouds.2 mph94%29.96 "Hg2 mi
5:00 PM43 °FSprinkles. Low clouds.3 mph93%29.93 "Hg3 mi
4:00 PM43 °FSprinkles. Low clouds.5 mph93%29.92 "Hg3 mi
3:00 PM44 °FLow clouds.5 mph89%29.91 "Hg4 mi
2:00 PM44 °FLight rain. Low clouds.6 mph89%29.90 "Hg4 mi
1:00 PM44 °FLight rain. Low clouds.5 mph92%29.88 "Hg3 mi
Weather by CustomWeather, © 2015

See weather overviewHow to use our weather pages